FENGYUN 1C DEB

Satellite information

Favourite Embed

Satellite Type and Status

DEBRISIN ORBIT

Key statistics

Satellite FENGYUN 1C DEB at a glance.

Uptime

9556

Days in orbit

Revolutions

≈ 14.4

Per day

Orbit

SSO

Sun Synchronous Orbit

Inclination

99.0

Latest

Satellite identification and parameters

Extended collection of information and parameters for FENGYUN 1C DEB.

Object identification

Identified? True

Debris? True

Object name: FENGYUN 1C DEB

International designator: 1999-025APN

Object number (NORAD): 30656

Object ID (CCSDS): 30656

Country: PEOPLES REPUBLIC OF CHINA (PRC)

Current information (Y/N): Y

RCS size: SMALL

Orbital parameters

Period: 99.861 minutes

Inclination: 99.0122 deg

SMA: 7130.039 km

Apoapsis: 775.853 km

Periapsis: 727.955 km

RAAN: 352.1993 deg

Eccentricy: 0.0033589

Argument of periapsis: 195.2946 deg

Mean anomaly: 164.7229 deg

Mean motion: 14.41998746 rev/day

Mean motion (dot): 0.00006243 rev/day2

B* drag term: 0.0019036 1/REarth

Two-line elements (TLE)

Creation date: July 6, 2025, 6:05 p.m.

Reference frame: TEME

Reference center: EARTH

Epoch: July 6, 2025, 9:59 a.m. UTC

TLE line 0: 0 FENGYUN 1C DEB

TLE line 1: 1 30656U 99025APN 25187.41627971 .00006243 00000-0 19036-2 0 9991

TLE line 2: 2 30656 99.0122 352.1993 0033589 195.2946 164.7229 14.41998746947870

Live tracking on map

Real-time ground track for satellite FENGYUN 1C DEB.

In-orbit conjunctions

A list of the most updated potential collisions computed for object FENGYUN 1C DEB.

Target Orbit TCA Probability of collision Miss distance Type
DMSP 5D-3 F16 DEB SSO 2024-12-24 02:34:17 0.0003372654 88.0 (m) DEBRIS
IRIDIUM 33 DEB LEO 2024-09-17 21:31:51 0.000113389 631.0 (m) DEBRIS
SL-16 R/B SSO 2024-08-30 23:44:18 0.0001952437 416.0 (m) ROCKET BODY

Associated space launch

Chinese polar orbiting meteorological satellite

FENGYUN 1C DEB was lifted into orbit during the mission ‘Long March 4B | Feng Yun 1C’, on board a Long March 4B space rocket.

The launch took place on May 10, 1999, 1:33 a.m. from Launch Complex 7.

For more information about the launch, click the button.

Launch to space Long March 4B | Feng Yun 1C
Long March 4B | Feng Yun 1C

Agency: N/A

Status: Launch Successful

Launch date: May 10, 1999, 1:33 a.m. UTC

Rocket: Long March 4B

Launch pad: Launch Complex 7

Location: Taiyuan Satellite Launch Center, People's Republic of China

...

Latest news about this satellite

There are no fresh news available about this satellite. Check back as we update our databases every day.


Newsletter sign-up

Weekly statistics, charts and insights to help you stay on top of the space industry.